This is the latest recevied weather packets stored in our database for station/object K4GSL. If no packets are shown the sender has not sent any weather packets the latest 10 day(s).
| Time | Temp. | Humidity | Pressure | Rain* | Wind** | Luminosity | Snow |
|---|---|---|---|---|---|---|---|
| 1778004794 | 15.56° C | 79% | 1020.5 hPa | 0 mm | - | 232 W/m² | - |
| 1778004491 | 15° C | 81% | 1020.4 hPa | 0 mm | - | 257 W/m² | - |
| 1778004187 | 15.56° C | 79% | 1020.4 hPa | 0 mm | - | 206 W/m² | - |
| 1778003884 | 15.56° C | 78% | 1020.5 hPa | 0 mm | - | 189 W/m² | - |
| 1778003580 | 15.56° C | 80% | 1020.5 hPa | 0 mm | - | 216 W/m² | - |
| 1778003276 | 15.56° C | 80% | 1020.9 hPa | 0 mm | - | 248 W/m² | - |
| 1778002974 | 15.56° C | 80% | 1020.5 hPa | 0 mm | - | 185 W/m² | - |
| 1778002670 | 15° C | 81% | 1020.5 hPa | 0 mm | - | 188 W/m² | - |
| 1778002367 | 15° C | 82% | 1020.2 hPa | 0 mm | - | 248 W/m² | - |
| 1778002063 | 14.44° C | 83% | 1020.5 hPa | 0 mm | - | 267 W/m² | - |
| 1778001761 | 14.44° C | 84% | 1020.4 hPa | 0 mm | - | 229 W/m² | - |
| 1778001460 | 15° C | 84% | 1020.4 hPa | 0 mm | - | 241 W/m² | - |
| 1778001158 | 14.44° C | 84% | 1020.3 hPa | 0 mm | - | 201 W/m² | - |
| 1778000854 | 14.44° C | 84% | 1020.2 hPa | 0 mm | - | 222 W/m² | - |
| 1778000551 | 13.89° C | 86% | 1020.4 hPa | 0 mm | - | 190 W/m² | - |
| 1778000247 | 13.89° C | 87% | 1020.4 hPa | 0 mm | - | 171 W/m² | - |
| 1777999943 | 13.89° C | 88% | 1020.4 hPa | 0 mm | - | 189 W/m² | - |
| 1777999638 | 13.33° C | 88% | 1020.1 hPa | 0 mm | - | 150 W/m² | - |
| 1777999336 | 13.33° C | 89% | 1020.4 hPa | 0 mm | - | 115 W/m² | - |
| 1777999034 | 13.33° C | 90% | 1020.5 hPa | 0 mm | - | 93 W/m² | - |
| 1777998732 | 12.78° C | 90% | 1020.5 hPa | 0 mm | - | 94 W/m² | - |
| 1777998429 | 12.78° C | 91% | 1020.5 hPa | 0 mm | - | 95 W/m² | - |
| 1777998126 | 12.78° C | 91% | 1020.5 hPa | 0 mm | - | 84 W/m² | - |
| 1777997823 | 12.78° C | 92% | 1020.4 hPa | 0 mm | - | 74 W/m² | - |
| 1777997521 | 12.22° C | 92% | 1020.5 hPa | 0 mm | - | 66 W/m² | - |
* Rain latest hour (hover to see other rain measurements)
** Current wind speed in m/s (hover to see current wind gust speed)